Regional Weather Roundup
Issued by NWS

Home | Current Version | Previous Version | Graphics & Text | Print | Product List | Glossary On
Versions: 1 2 3 4 5 6 7 8 9 10 11 12 13 14 15 16 17 18 19 20 21 22 23 24 25 26 27 28 29 30 31 32 33 34 35 36 37 38 39 40 41 42 43 44 45 46 47 48 49 50
000
ASUS43 KLOT 311400
RWRIL

ILLINOIS REGIONAL WEATHER ROUNDUP
NATIONAL WEATHER SERVICE CHICAGO/ROMEOVILLE IL
900 AM CDT FRI JUL 31 2015

NOTE: "FAIR" INDICATES FEW OR NO CLOUDS BELOW 12,000 FEET WITH NO
SIGNIFICANT WEATHER AND/OR OBSTRUCTIONS TO VISIBILITY.

* THESE STATIONS ARE NOT UNDER NWS QUALITY CONTROL. THEY ALSO MAY NOT
  REPORT WEATHER SUCH AS PRECIPITATION OR FOG.

ILZ001-002-007-009-015-016-024-311500-
NORTHWEST ILLINOIS

CITY           SKY/WX    TMP DP  RH WIND       PRES   REMARKS
MOLINE         SUNNY     78  65  63 NW13      30.08S HX  80
STERLING*      MOSUNNY   75  68  78 NW8       30.04R
$$

ILZ003-004-008-010-011-017-018-311500-
NORTH CENTRAL ILLINOIS

CITY           SKY/WX    TMP DP  RH WIND       PRES   REMARKS
ROCKFORD       MOSUNNY   77  64  64 NW9       30.05S
$$

ILZ005-006-012>014-019>023-311500-
NORTHEAST ILLINOIS

CITY           SKY/WX    TMP DP  RH WIND       PRES   REMARKS
CHICAGO-OHARE  PTSUNNY   75  63  66 W12       30.01F
CHICAGO-MIDWAY MOSUNNY   76  62  62 SW10      30.01F
AURORA         MOSUNNY   76  67  73 W13       30.04F
WAUKEGAN       MOSUNNY   76  61  59 VRB5      29.99F
DUPAGE AIRPORT MOSUNNY   74  65  73 W9        30.03F
WHEELING       PTSUNNY   77  60  55 W13G18    30.02F
NORTHERLY ISL    N/A     76  59  55 W3          N/A
$$

LMZ740>746-311500-
SOUTHERN LAKE MICHIGAN

STATION/POSITION SKY/WX   TEMP    WIND        PRES    VSBY  WAVE
                          AIR SEA DIR/SP/G                  HT/PER
                          (F)     (DEG/KT/KT) (MB)    (MI)  (FT/S)
HARRISON CRIB              75     270/ 15/ 17   N/A
BURNHAM HARBOR             77     220/  7/ 12   N/A
CALUMET HARBOR             75     230/  5/ 10   N/A
BURNS HARBOR               74     240/  8/ 11 1017.3S
MICHIGAN CITY              73     210/ 11/ 13   N/A
MICHIGAN CITY 6N           73 73  250/ 10/ 14   N/A           2/ 3
ST. JOSEPH                 73 74  290/ 14/ 16   N/A           2/ 4
$$

ILZ025>027-034>036-040-047-049-050-058-095>099-311500-
WEST-CENTRAL ILLINOIS

CITY           SKY/WX    TMP DP  RH WIND       PRES   REMARKS
QUINCY         SUNNY     78  65  63 W8        30.13S HX  80
MACOMB*        SUNNY     76  67  75 W9        30.13S
$$

ILZ028>032-037-038-041>044-048-051>054-059>061-311500-
CENTRAL ILLINOIS

CITY           SKY/WX    TMP DP  RH WIND       PRES   REMARKS
DECATUR        SUNNY     80  66  62 NW7       30.11S HX  82
PEORIA         SUNNY     80  66  62 W7        30.09F HX  82
SPRINGFIELD    SUNNY     78  68  71 W6        30.11S HX  80
TAYLORVILLE    NOT AVBL
$$

ILZ033-039-045-046-055>057-062-063-311500-
EAST-CENTRAL ILLINOIS

CITY           SKY/WX    TMP DP  RH WIND       PRES   REMARKS
CHAMPAIGN      SUNNY     76  69  79 W8        30.10S
MATTOON        SUNNY     77  65  66 NW7       30.10S
$$

ILZ079-100>102-311500-
SOUTHWEST ILLINOIS

CITY           SKY/WX    TMP DP  RH WIND       PRES   REMARKS
ALTON          SUNNY     77  64  65 W6        30.13S
BELLEVILLE     SUNNY     80  68  66 NW6       30.12S HX  83
CAHOKIA*       SUNNY     82  64  54 W3        30.13S HX  83
$$

ILZ064>066-069>071-074>076-080>082-084>086-088>090-092>094-311500-
SOUTH-CENTRAL ILLINOIS

CITY           SKY/WX    TMP DP  RH WIND       PRES   REMARKS
CARBONDALE     SUNNY     77  67  71 N8        30.13S
MARION         SUNNY     79  68  69 NW8       30.13S HX  81
MT. VERNON     SUNNY     79  66  65 N3        30.13S HX  81
SALEM*         SUNNY     79  67  66 NW7       30.13S HX  81
$$

ILZ067-068-072-073-078-083-087-091-311500-
SOUTHEAST ILLINOIS

CITY           SKY/WX    TMP DP  RH WIND       PRES   REMARKS
LAWRENCEVILLE  SUNNY     76  68  76 NW5       30.10S
FLORA*         SUNNY     77  66  68 N6        30.12S
HARRISBURG*    SUNNY     78  69  73 NW6       30.12F
ROBINSON*      SUNNY     76  68  76 NW3       30.11S
CARMI*         SUNNY     75  64  68 CALM      30.10F
$$

ABBREVIATIONS USED IN REMARKS
   TC - TEMPERATURE IN CELSIUS
  WCI - WIND CHILL INDEX
   HX - HEAT INDEX
  VSB - VISIBILITY
$$



USA.gov is the U.S. government's official web portal to all federal, state and local government web resources and services.